FLOCK 3P-7 (41970 NORAD) Tracking and Keplerian Element Data

This shows tracking and keplerian element data for the satellite.

Feedback or suggestion? Click here.




ElementValue
Catalog41970
NameFLOCK 3P-7
Epoch Orbit17715
Epoch Day114.72090796
Epoch Year2020
RAAN184.3581
Inclination97.3673
Eccentricity0.0009228
Argument of Perigee119.9767
Mean Anonmoly240.239
Mean Motion15.28434287
Decay Rate3.51E-05
L11 41970U 17008Y 20114.72090796 .00003510 00000-0 12938-3 0 9990
L22 41970 97.3673 184.3581 0009228 119.9767 240.2390 15.28434287177154



Live tracking and technical data element details for FLOCK 3P-7 (NORAD 41970). FLOCK 3P-7 can be tracked NOW for your location showing map with azimuth and elevation plus other details from your city location.







IsCatalogInMostPopularTable: catalog: 41970, numindb: 497
Update: records affected: 1



GetName: 41970 FLOCK 3P-7

Hit Count: updated at: Sat, 06 Dec 2025 18:00:55 GMT